Weather History for KVVV - August, 2013

Change the Weather History Date:

Saturday, August 31, 2013

  Actual Average (KAQP) Record (KAQP)
Temperature  
Mean Temperature 78 °F -  
Max Temperature 91 °F 77 °F 91 °F (2013)
Min Temperature 64 °F 54 °F 46 °F (2003)
Cooling Degree Days 12    
Growing Degree Days 28 (Base 50)    
Moisture  
Dew Point 64 °F    
Average Humidity 73    
Maximum Humidity 94    
Minimum Humidity 38    
Precipitation  
Precipitation 0.01 in - - ()
Sea Level Pressure  
Sea Level Pressure 29.83 in    
Wind  
Wind Speed 5 mph (South)    
Max Wind Speed 21 mph    
Max Gust Speed 36 mph    
Visibility 10 miles    
Events Rain , Thunderstorm    
Averages and records for this station are not official NWS values.
T = Trace of Precipitation, MM = Missing Value Source: NWS Daily Summary

Daily Weather History Graph

Daily Weather History Graph

Search for Another Location

Airport or City:

Trip Planner

Search our weather history database for the weather conditions in past years. The results will help you decide how hot, cold, wet, or windy it might be!

Date:

Astronomy

Aug. 31, 2013 Rise Set
Actual Time 6:46 AM CDT 8:04 PM CDT
Civil Twilight 6:15 AM CDT 8:34 PM CDT
Nautical Twilight 5:39 AM CDT 9:11 PM CDT
Astronomical Twilight 4:59 AM CDT 9:50 PM CDT
Moon 2:08 AM CDT (8/31) 5:10 PM CDT (8/31)
Length of Visible Light 14h 19m
Length of Day
13h 18m
Waning Crescent, 21% of the Moon is Illuminated
Aug 31
Waning Crescent
Sep 5
New
Sep 12
First Quarter
Sep 19
Full
Sep 26
Last Quarter

Hourly Weather History & Observations

Time (CDT) Temp. Heat Index Dew Point Humidity Pressure Visibility Wind Dir Wind Speed Gust Speed Precip Events Conditions
12:13 AM 68.0 °F - 64.4 °F 88% 29.90 in 10.0 mi Calm Calm - N/A   Clear
12:34 AM 68.0 °F - 62.6 °F 83% 29.91 in 10.0 mi South 4.6 mph - N/A   Clear
12:54 AM 69.8 °F - 64.4 °F 83% 29.91 in 10.0 mi South 5.8 mph - N/A   Clear
1:13 AM 68.0 °F - 62.6 °F 83% 29.91 in 10.0 mi South 4.6 mph - N/A   Clear
1:34 AM 68.0 °F - 62.6 °F 83% 29.90 in 10.0 mi South 3.5 mph - N/A   Clear
1:54 AM 68.0 °F - 64.4 °F 88% 29.91 in 10.0 mi SSW 3.5 mph - N/A   Clear
2:13 AM 68.0 °F - 62.6 °F 83% 29.92 in 10.0 mi Calm Calm - N/A   Clear
2:34 AM 66.2 °F - 62.6 °F 88% 29.92 in 10.0 mi Calm Calm - N/A   Clear
2:53 AM 68.0 °F - 62.6 °F 83% 29.91 in 10.0 mi SW 4.6 mph - N/A   Clear
3:14 AM 68.0 °F - 62.6 °F 83% 29.90 in 10.0 mi Calm Calm - N/A   Clear
3:34 AM 66.2 °F - 62.6 °F 88% 29.90 in 10.0 mi Calm Calm - N/A   Clear
3:53 AM 66.2 °F - 60.8 °F 83% 29.90 in 10.0 mi Calm Calm - N/A   Clear
4:14 AM 64.4 °F - 60.8 °F 88% 29.89 in 10.0 mi SW 3.5 mph - N/A   Clear
4:34 AM 66.2 °F - 62.6 °F 88% 29.89 in 10.0 mi Calm Calm - N/A   Clear
4:53 AM 66.2 °F - 62.6 °F 88% 29.88 in 10.0 mi SSW 4.6 mph - N/A   Clear
5:14 AM 64.4 °F - 62.6 °F 94% 29.87 in 10.0 mi SSW 4.6 mph - N/A   Clear
5:33 AM 66.2 °F - 62.6 °F 88% 29.85 in 10.0 mi South 4.6 mph - N/A   Clear
5:53 AM 66.2 °F - 62.6 °F 88% 29.78 in 10.0 mi SSE 9.2 mph - N/A   Clear
6:14 AM 68.0 °F - 62.6 °F 83% 29.80 in 10.0 mi South 8.1 mph - N/A   Clear
6:33 AM 66.2 °F - 62.6 °F 88% 29.80 in 10.0 mi South 4.6 mph - N/A   Clear
6:54 AM 66.2 °F - 62.6 °F 88% 29.79 in 10.0 mi SSE 5.8 mph - N/A   Clear
7:14 AM 66.2 °F - 62.6 °F 88% 29.79 in 10.0 mi SE 6.9 mph - N/A   Clear
7:33 AM 66.2 °F - 62.6 °F 88% 29.80 in 10.0 mi SE 3.5 mph - N/A   Clear
7:54 AM 66.2 °F - 62.6 °F 88% 29.82 in 10.0 mi South 3.5 mph - N/A   Clear
8:14 AM 68.0 °F - 62.6 °F 83% 29.83 in 10.0 mi Calm Calm - N/A   Clear
8:33 AM 69.8 °F - 64.4 °F 83% 29.85 in 10.0 mi ENE 3.5 mph - N/A   Clear
8:54 AM 71.6 °F - 64.4 °F 78% 29.84 in 10.0 mi ESE 5.8 mph - N/A   Clear
9:13 AM 71.6 °F - 64.4 °F 78% 29.85 in 10.0 mi SE 4.6 mph - N/A   Clear
9:34 AM 73.4 °F - 66.2 °F 78% 29.84 in 10.0 mi SE 5.8 mph - N/A   Clear
9:54 AM 75.2 °F - 64.4 °F 69% 29.85 in 10.0 mi SSE 3.5 mph - N/A   Clear
10:13 AM 75.2 °F - 66.2 °F 73% 29.84 in 10.0 mi South 4.6 mph - N/A   Clear
10:34 AM 78.8 °F - 66.2 °F 65% 29.83 in 10.0 mi SSE 4.6 mph - N/A   Clear
10:54 AM 78.8 °F - 66.2 °F 65% 29.83 in 10.0 mi South 5.8 mph - N/A   Clear
11:13 AM 80.6 °F 82.7 °F 66.2 °F 61% 29.82 in 10.0 mi SSE 5.8 mph - N/A   Clear
11:34 AM 80.6 °F 82.7 °F 66.2 °F 61% 29.82 in 10.0 mi South 4.6 mph - N/A   Clear
11:53 AM 82.4 °F 84.6 °F 66.2 °F 58% 29.81 in 10.0 mi SSE 5.8 mph - N/A   Clear
12:13 PM 84.2 °F 86.6 °F 66.2 °F 55% 29.80 in 10.0 mi South 5.8 mph - N/A   Clear
12:34 PM 84.2 °F 86.6 °F 66.2 °F 55% 29.80 in 10.0 mi South 6.9 mph - N/A   Clear
12:53 PM 86.0 °F 88.2 °F 66.2 °F 51% 29.79 in 10.0 mi SSE 9.2 mph - N/A   Clear
1:14 PM 87.8 °F 90.4 °F 66.2 °F 49% 29.78 in 10.0 mi South 9.2 mph - N/A   Clear
1:34 PM 87.8 °F 89.4 °F 64.4 °F 46% 29.78 in 10.0 mi South 8.1 mph - N/A   Clear
1:53 PM 89.6 °F 91.1 °F 64.4 °F 43% 29.78 in 10.0 mi South 9.2 mph - N/A   Clear
2:14 PM 89.6 °F 91.1 °F 64.4 °F 43% 29.78 in 10.0 mi South 11.5 mph - N/A   Clear
2:34 PM 91.4 °F 93.2 °F 64.4 °F 41% 29.77 in 10.0 mi SW 6.9 mph - N/A   Clear
2:53 PM 91.4 °F 92.1 °F 62.6 °F 38% 29.77 in 10.0 mi SW 4.6 mph - N/A   Clear
3:14 PM 91.4 °F 92.1 °F 62.6 °F 38% 29.77 in 10.0 mi WSW 5.8 mph - N/A   Clear
3:34 PM 89.6 °F 91.1 °F 64.4 °F 43% 29.76 in 10.0 mi West 9.2 mph - N/A Rain , Thunderstorm Light Thunderstorms and Rain
3:53 PM 87.8 °F 89.4 °F 64.4 °F 46% 29.77 in 10.0 mi WNW 9.2 mph - N/A Thunderstorm Mostly Cloudy
4:14 PM 87.8 °F 90.4 °F 66.2 °F 49% 29.76 in 10.0 mi WNW 8.1 mph - N/A Thunderstorm Thunderstorm
4:34 PM 84.2 °F 87.3 °F 68.0 °F 58% 29.76 in 7.0 mi NW 20.7 mph 35.7 mph N/A Thunderstorm Thunderstorm
4:53 PM 77.0 °F - 66.2 °F 69% 29.77 in 10.0 mi NNW 15.0 mph 31.1 mph N/A Thunderstorm Thunderstorm
5:14 PM 75.2 °F - 66.2 °F 73% 29.79 in 10.0 mi NNW 8.1 mph - N/A Thunderstorm Thunderstorm
5:34 PM 77.0 °F - 66.2 °F 69% 29.81 in 10.0 mi NW 8.1 mph - N/A Rain Light Rain
5:53 PM 75.2 °F - 66.2 °F 73% 29.77 in 10.0 mi NE 6.9 mph - 0.01 in Rain , Thunderstorm Light Thunderstorms and Rain
6:14 PM 73.4 °F - 66.2 °F 78% 29.70 in 10.0 mi East 13.8 mph 21.9 mph N/A Rain Light Rain
6:33 PM 73.4 °F - 66.2 °F 78% 29.73 in 10.0 mi NE 5.8 mph - N/A   Clear
6:54 PM 73.4 °F - 66.2 °F 78% 29.77 in 10.0 mi Calm Calm - N/A   Clear
7:14 PM 71.6 °F - 66.2 °F 83% 29.78 in 10.0 mi South 4.6 mph - N/A   Clear
7:33 PM 71.6 °F - 66.2 °F 83% 29.80 in 10.0 mi South 4.6 mph - N/A   Clear
7:54 PM 71.6 °F - 66.2 °F 83% 29.81 in 10.0 mi South 4.6 mph - N/A   Clear
8:14 PM 71.6 °F - 66.2 °F 83% 29.82 in 10.0 mi South 3.5 mph - N/A Rain Light Rain
8:33 PM 69.8 °F - 66.2 °F 88% 29.82 in 10.0 mi South 4.6 mph - N/A   Clear
8:54 PM 71.6 °F - 64.4 °F 78% 29.83 in 10.0 mi SSW 3.5 mph - N/A   Scattered Clouds
9:14 PM 71.6 °F - 64.4 °F 78% 29.84 in 10.0 mi SSE 5.8 mph - N/A Thunderstorm Thunderstorm
9:33 PM 71.6 °F - 64.4 °F 78% 29.86 in 10.0 mi Calm Calm - N/A Rain Heavy Rain
9:54 PM 69.8 °F - 64.4 °F 83% 29.84 in 10.0 mi South 5.8 mph - N/A Rain Light Rain
10:14 PM 69.8 °F - 64.4 °F 83% 29.84 in 10.0 mi WSW 4.6 mph - N/A   Clear
10:33 PM 69.8 °F - 64.4 °F 83% 29.84 in 10.0 mi West 5.8 mph - N/A   Clear
10:54 PM 71.6 °F - 64.4 °F 78% 29.84 in 10.0 mi WNW 8.1 mph - N/A   Clear
11:13 PM 71.6 °F - 64.4 °F 78% 29.84 in 10.0 mi NW 9.2 mph - N/A   Clear
11:34 PM 71.6 °F - 60.8 °F 69% 29.84 in 10.0 mi NW 10.4 mph 16.1 mph N/A   Clear
11:54 PM 71.6 °F - 59.0 °F 64% 29.84 in 10.0 mi NW 10.4 mph 18.4 mph N/A   Clear